Starlink 32413

operational
NORAD ID: 61590 Int'l Des: 2024-187 Owner: SPXS Country: US Constellation: starlink
LEOCIRCULAR

Starlink 32413について

説明を読み込み中...

リアルタイム位置

3D地球を読み込み中...

次回通過

高度履歴

Altitude vs Time

uPlot chart will show altitude changes over time

軌道要素

1 61590U 24187S 25259.98190938 -.00001306 00000-0 -31987-4 0 9997
2 61590 53.1606 152.2023 0001291 80.8194 279.2953 15.30175598 52482
Epoch: Sep 16, 2025 • Age: 28 hours

現在のステータス

高度 477.1 km
速度 7.63 km/s
衛星直下点 -5.31°S, 89.15°E
打ち上げ日 Oct 18, 2024
運用期間 0.9 years
タイプ internet

技術仕様

分類 Payload
質量 730.00 kg
乾燥質量 700.00 kg
総質量 730.00 kg
長さ 0.30 m
直径 4.10 m
スパン 29.00 m
形状 Box + pan
製造者 SPXS
バスタイプ Starlink V2M
フェーズステータス In Orbit
所有者/国 SPXS/US

大規模コンステレーション

Loading constellations...